^^
Station Historical Data
Daily Summary for January 5, 2017 Units:  Metric    English   Both
« Previous Day
Next Day »
Daily Weekly Monthly Yearly Custom
  High: Low: Average:
Temperature: -17.8 °C -29.2 °C -27.7 °C
Dew Point: -17.8 °C -30.2 °C -28.7 °C
Humidity: Humidity% 82% 84%
Wind Speed: 0km/h 0km/h 4.8km/h
Wind Gust: 0km/h - -
Wind- - NW
Pressure: 0 hPa 34371.3 hPa -
Precipitation: 0 mm    
Historical Graphs
 
 
Tabular Data for January 5, 2017
Time Temperature Dew Point Pressure Wind Wind Speed Wind Gust Humidity Rainfall Rate (Hourly) solar Conditions
-17.8 °C -17.8 °C 0 hPa Calm     Humidity% 0 mm SoftwareType W/m2 Conditions
00:02 -27.6 °C -28.6 °C 34371.3 hPa North 5.5 km/h 11.9 km/h 85% 0 mm WeatherDisplay:10.37 W/m2 RA
00:07 -27.6 °C -28.7 °C 34384.8 hPa NNE 4.2 km/h 9 km/h 84% 0 mm WeatherDisplay:10.37 W/m2 RA
00:12 -27.6 °C -28.7 °C 34384.8 hPa NNW 1.8 km/h 11.9 km/h 84% 0 mm WeatherDisplay:10.37 W/m2 FEW
00:17 -27.6 °C -28.7 °C 34384.8 hPa NNW 4.7 km/h 11.9 km/h 84% 0 mm WeatherDisplay:10.37 W/m2 FEW
00:23 -27.6 °C -28.7 °C 34384.8 hPa NNE 5.6 km/h 11.9 km/h 84% 0 mm WeatherDisplay:10.37 W/m2 FEW
00:28 -27.6 °C -28.7 °C 34384.8 hPa NNW 9.3 km/h 17.9 km/h 84% 0 mm WeatherDisplay:10.37 W/m2 FEW
00:33 -27.6 °C -28.7 °C 34395 hPa North 3.7 km/h 9 km/h 84% 0 mm WeatherDisplay:10.37 W/m2 FEW
00:38 -27.5 °C -28.7 °C 34395 hPa NNW 11.4 km/h 17.9 km/h 84% 0 mm WeatherDisplay:10.37 W/m2 FEW
00:43 -27.4 °C -28.6 °C 34395 hPa ENE 10.1 km/h 20.9 km/h 84% 0 mm WeatherDisplay:10.37 W/m2 FEW
00:49 -27.4 °C -28.6 °C 34395 hPa NNW 7.7 km/h 9 km/h 84% 0 mm WeatherDisplay:10.37 W/m2 FEW
01:02 -27.5 °C -28.7 °C 34405.1 hPa NNW 3.1 km/h 7.7 km/h 83% 0 mm WeatherDisplay:10.37 W/m2 FEW
01:07 -27.6 °C -28.7 °C 34405.1 hPa NNW 6.4 km/h 15 km/h 83% 0 mm WeatherDisplay:10.37 W/m2 FEW
01:12 -27.6 °C -28.7 °C 34418.7 hPa NE 2.3 km/h 9 km/h 83% 0 mm WeatherDisplay:10.37 W/m2 FEW
01:17 -27.6 °C -28.8 °C 34418.7 hPa NNW 6.3 km/h 10.3 km/h 83% 0 mm WeatherDisplay:10.37 W/m2 FEW
01:22 -27.6 °C -28.8 °C 34418.7 hPa NNW 8 km/h 20.9 km/h 83% 0 mm WeatherDisplay:10.37 W/m2 FEW
01:27 -27.6 °C -28.8 °C 34428.8 hPa NNW 5 km/h 9 km/h 84% 0 mm WeatherDisplay:10.37 W/m2 FEW
01:32 -27.7 °C -28.8 °C 34428.8 hPa NNW 11.6 km/h 15 km/h 84% 0 mm WeatherDisplay:10.37 W/m2 FEW
01:37 -27.7 °C -28.8 °C 34428.8 hPa NNW 3.7 km/h 9 km/h 84% 0 mm WeatherDisplay:10.37 W/m2 FEW
01:42 -27.7 °C -28.8 °C 34428.8 hPa NNW 9 km/h 15 km/h 84% 0 mm WeatherDisplay:10.37 W/m2 FEW
01:47 -27.7 °C -28.8 °C 34428.8 hPa NNE 2.3 km/h 9 km/h 84% 0 mm WeatherDisplay:10.37 W/m2 FEW
01:52 -27.7 °C -28.8 °C 34428.8 hPa North 0.5 km/h 20.9 km/h 84% 0 mm WeatherDisplay:10.37 W/m2 FEW
01:57 -27.7 °C -28.8 °C 34428.8 hPa NNW 4.3 km/h 26.9 km/h 84% 0 mm WeatherDisplay:10.37 W/m2 FEW
02:02 -27.7 °C -28.9 °C 34442.4 hPa NNW 13.2 km/h 15.6 km/h 84% 0 mm WeatherDisplay:10.37 W/m2 FEW
02:07 -27.7 °C -28.8 °C 34442.4 hPa NW 14 km/h 14 km/h 85% 0 mm WeatherDisplay:10.37 W/m2 FEW
02:12 -27.8 °C -28.8 °C 34442.4 hPa NNW 4.7 km/h 12.9 km/h 85% 0 mm WeatherDisplay:10.37 W/m2 FEW
02:17 -27.8 °C -28.8 °C 34442.4 hPa NW 2.1 km/h 20.9 km/h 85% 0 mm WeatherDisplay:10.37 W/m2 FEW
02:22 -27.8 °C -28.8 °C 34452.6 hPa North 6.8 km/h 20.9 km/h 85% 0 mm WeatherDisplay:10.37 W/m2 FEW
02:27 -27.8 °C -28.8 °C 34452.6 hPa NNW 3.7 km/h 9 km/h 85% 0 mm WeatherDisplay:10.37 W/m2 FEW
02:32 -27.8 °C -28.8 °C 34462.7 hPa NNW 9.3 km/h 23.8 km/h 85% 0 mm WeatherDisplay:10.37 W/m2 FEW
02:37 -27.8 °C -28.9 °C 34462.7 hPa North 6.4 km/h 23.8 km/h 85% 0 mm WeatherDisplay:10.37 W/m2 FEW
02:42 -27.9 °C -28.9 °C 34462.7 hPa NNW 5.6 km/h 20.9 km/h 85% 0 mm WeatherDisplay:10.37 W/m2 FEW
02:47 -27.8 °C -28.9 °C 34462.7 hPa NNW 3.7 km/h 15 km/h 85% 0 mm WeatherDisplay:10.37 W/m2 FEW
02:57 -27.9 °C -28.9 °C 34462.7 hPa NNW 5.6 km/h 10.3 km/h 85% 0 mm WeatherDisplay:10.37 W/m2 FEW
03:02 -27.9 °C -28.9 °C 34462.7 hPa NNW 2.3 km/h 5.1 km/h 85% 0 mm WeatherDisplay:10.37 W/m2 FEW
03:07 -27.9 °C -28.9 °C 34476.3 hPa NNW 3.9 km/h 26.9 km/h 85% 0 mm WeatherDisplay:10.37 W/m2 FEW
03:12 -27.9 °C -28.9 °C 34476.3 hPa NNW 3.4 km/h 11.9 km/h 85% 0 mm WeatherDisplay:10.37 W/m2 FEW
03:17 -27.9 °C -28.9 °C 34476.3 hPa NNW 2.1 km/h 9 km/h 85% 0 mm WeatherDisplay:10.37 W/m2 FEW
03:22 -27.9 °C -28.9 °C 34476.3 hPa NW 10.6 km/h 20.9 km/h 85% 0 mm WeatherDisplay:10.37 W/m2 FEW
03:27 -27.8 °C -28.9 °C 34476.3 hPa NNW 5.1 km/h 9 km/h 85% 0 mm WeatherDisplay:10.37 W/m2 FEW
03:32 -27.8 °C -28.9 °C 34476.3 hPa NNW 3.7 km/h 9 km/h 85% 0 mm WeatherDisplay:10.37 W/m2 FEW
03:37 -27.8 °C -28.9 °C 34486.4 hPa NW 1 km/h 11.9 km/h 85% 0 mm WeatherDisplay:10.37 W/m2 FEW
03:42 -27.8 °C -28.8 °C 34486.4 hPa NNW 4.2 km/h 11.9 km/h 85% 0 mm WeatherDisplay:10.37 W/m2 FEW
03:47 -27.8 °C -28.8 °C 34486.4 hPa NNW 15 km/h 20.9 km/h 85% 0 mm WeatherDisplay:10.37 W/m2 FEW
03:52 -27.7 °C -28.7 °C 34486.4 hPa NNW 7.7 km/h 15 km/h 86% 0 mm WeatherDisplay:10.37 W/m2 FEW
04:02 -27.7 °C -28.7 °C 34496.6 hPa NNE 6.8 km/h 11.9 km/h 85% 0 mm WeatherDisplay:10.37 W/m2 FEW
04:07 -27.7 °C -28.7 °C 34496.6 hPa NW 14.2 km/h 29.8 km/h 85% 0 mm WeatherDisplay:10.37 W/m2 FEW
04:12 -27.7 °C -28.7 °C 34496.6 hPa NNW 5.6 km/h 20.9 km/h 85% 0 mm WeatherDisplay:10.37 W/m2 FEW
04:17 -27.7 °C -28.7 °C 34496.6 hPa NNW 6.8 km/h 11.9 km/h 85% 0 mm WeatherDisplay:10.37 W/m2 FEW
04:22 -27.7 °C -28.7 °C 34510.1 hPa NW 6 km/h 12.9 km/h 85% 0 mm WeatherDisplay:10.37 W/m2 FEW
04:27 -27.7 °C -28.7 °C 34510.1 hPa NW 3.7 km/h 9 km/h 85% 0 mm WeatherDisplay:10.37 W/m2 FEW
04:32 -27.7 °C -28.7 °C 34510.1 hPa NNW 6.8 km/h 9 km/h 85% 0 mm WeatherDisplay:10.37 W/m2 FEW
04:37 -27.7 °C -28.7 °C 34520.3 hPa NNE 7.2 km/h 9 km/h 85% 0 mm WeatherDisplay:10.37 W/m2 FEW
04:42 -27.6 °C -28.7 °C 34520.3 hPa NNW 3.7 km/h 9 km/h 85% 0 mm WeatherDisplay:10.37 W/m2 FEW
04:47 -27.6 °C -28.7 °C 34520.3 hPa NNW 2.3 km/h 11.9 km/h 85% 0 mm WeatherDisplay:10.37 W/m2 FEW
04:52 -27.6 °C -28.7 °C 34520.3 hPa NNW 3.1 km/h 29.8 km/h 85% 0 mm WeatherDisplay:10.37 W/m2 FEW
04:57 -27.6 °C -28.7 °C 34533.8 hPa NW 1.3 km/h 5.1 km/h 85% 0 mm WeatherDisplay:10.37 W/m2 FEW
05:02 -27.6 °C -28.7 °C 34533.8 hPa NNW 6 km/h 25.9 km/h 85% 0 mm WeatherDisplay:10.37 W/m2 FEW
05:07 -27.6 °C -28.6 °C 34544 hPa NW 7.2 km/h 9 km/h 85% 0 mm WeatherDisplay:10.37 W/m2 FEW
05:12 -27.6 °C -28.7 °C 34533.8 hPa NNW 6.4 km/h 15.6 km/h 85% 0 mm WeatherDisplay:10.37 W/m2 FEW
05:17 -27.6 °C -28.7 °C 34544 hPa NNW 6.9 km/h 15 km/h 85% 0 mm WeatherDisplay:10.37 W/m2 FEW
05:22 -27.6 °C -28.7 °C 34544 hPa NNW 10.9 km/h 23.3 km/h 85% 0 mm WeatherDisplay:10.37 W/m2 FEW
05:27 -27.6 °C -28.6 °C 34544 hPa NW 3.4 km/h 12.9 km/h 85% 0 mm WeatherDisplay:10.37 W/m2 FEW
05:32 -27.6 °C -28.7 °C 34544 hPa NNW 3.4 km/h 9 km/h 85% 0 mm WeatherDisplay:10.37 W/m2 FEW
05:37 -27.6 °C -28.7 °C 34544 hPa NNW 6.9 km/h 11.9 km/h 84% 0 mm WeatherDisplay:10.37 W/m2 FEW
05:42 -27.6 °C -28.8 °C 34554.1 hPa NNW 6 km/h 20.9 km/h 84% 0 mm WeatherDisplay:10.37 W/m2 FEW
05:47 -27.6 °C -28.8 °C 34554.1 hPa NNW 5 km/h 11.9 km/h 84% 0 mm WeatherDisplay:10.37 W/m2 FEW
05:52 -27.7 °C -28.8 °C 34554.1 hPa NNW 0.3 km/h 6 km/h 84% 0 mm WeatherDisplay:10.37 W/m2 FEW
05:57 -27.7 °C -28.8 °C 34554.1 hPa NNW 8.5 km/h 9 km/h 84% 0 mm WeatherDisplay:10.37 W/m2 FEW
06:02 -27.7 °C -28.8 °C 34567.7 hPa NNW 10.9 km/h 23.3 km/h 84% 0 mm WeatherDisplay:10.37 W/m2 FEW
06:07 -27.7 °C -28.8 °C 34567.7 hPa NNW 11.4 km/h 15 km/h 84% 0 mm WeatherDisplay:10.37 W/m2 FEW
06:12 -27.7 °C -28.8 °C 34567.7 hPa NNW 7.2 km/h 26.9 km/h 84% 0 mm WeatherDisplay:10.37 W/m2 FEW
06:17 -27.7 °C -28.8 °C 34567.7 hPa NNW 8 km/h 15 km/h 84% 0 mm WeatherDisplay:10.37 W/m2 FEW
06:22 -27.7 °C -28.9 °C 34567.7 hPa NNW 1 km/h 11.9 km/h 84% 0 mm WeatherDisplay:10.37 W/m2 FEW
06:27 -27.7 °C -28.9 °C 34577.8 hPa NNW 0.8 km/h 9 km/h 84% 0 mm WeatherDisplay:10.37 W/m2 FEW
06:32 -27.8 °C -28.9 °C 34577.8 hPa North 5.6 km/h 9 km/h 84% 0 mm WeatherDisplay:10.37 W/m2 FEW
06:37 -27.8 °C -28.9 °C 34577.8 hPa North 9.7 km/h 15 km/h 84% 0 mm WeatherDisplay:10.37 W/m2 FEW
06:42 -27.8 °C -28.9 °C 34577.8 hPa NNW 10.9 km/h 15 km/h 84% 0 mm WeatherDisplay:10.37 W/m2 FEW
06:47 -27.8 °C -29 °C 34577.8 hPa NNW 6.4 km/h 20.8 km/h 84% 0 mm WeatherDisplay:10.37 W/m2 FEW
06:52 -27.9 °C -29 °C 34591.4 hPa NNW 8.9 km/h 9 km/h 84% 0 mm WeatherDisplay:10.37 W/m2 FEW
06:57 -27.9 °C -29.1 °C 34591.4 hPa NW 10.1 km/h 15 km/h 84% 0 mm WeatherDisplay:10.37 W/m2 FEW
07:02 -27.9 °C -29.1 °C 34591.4 hPa North 2.1 km/h 9 km/h 84% 0 mm WeatherDisplay:10.37 W/m2 FEW
07:07 -27.9 °C -29.1 °C 34591.4 hPa NNW 2.3 km/h 9 km/h 84% 0 mm WeatherDisplay:10.37 W/m2 FEW
07:12 -27.9 °C -29 °C 34601.5 hPa NW 5 km/h 23.3 km/h 85% 0 mm WeatherDisplay:10.37 W/m2 FEW
07:17 -27.9 °C -29 °C 34601.5 hPa NW 1.6 km/h 9 km/h 85% 0 mm WeatherDisplay:10.37 W/m2 FEW
07:22 -27.9 °C -29 °C 34601.5 hPa NNW 9 km/h 9 km/h 85% 0 mm WeatherDisplay:10.37 W/m2 FEW
07:27 -28 °C -29.1 °C 34601.5 hPa NNW 0.3 km/h 2.6 km/h 85% 0 mm WeatherDisplay:10.37 W/m2 FEW
07:32 -28 °C -29.1 °C 34601.5 hPa NNW 6.4 km/h 11.9 km/h 85% 0 mm WeatherDisplay:10.37 W/m2 FEW
07:37 -28 °C -29.1 °C 34611.7 hPa NNW 1.3 km/h 2.6 km/h 85% 0 mm WeatherDisplay:10.37 W/m2 FEW
07:42 -27.9 °C -29 °C 34611.7 hPa NNW 11.1 km/h 20.9 km/h 85% 0 mm WeatherDisplay:10.37 W/m2 FEW
07:47 -27.9 °C -29 °C 34611.7 hPa NNW 6.8 km/h 10.3 km/h 85% 0 mm WeatherDisplay:10.37 W/m2 FEW
07:52 -28 °C -29.1 °C 34625.2 hPa NNW 6.4 km/h 15 km/h 85% 0 mm WeatherDisplay:10.37 W/m2 FEW
07:57 -28 °C -29.1 °C 34625.2 hPa NNW 6.4 km/h 11.9 km/h 85% 0 mm WeatherDisplay:10.37 W/m2 FEW
08:02 -28 °C -29.1 °C 34625.2 hPa NW 10.6 km/h 11.9 km/h 85% 0 mm WeatherDisplay:10.37 W/m2 FEW
08:08 -28 °C -29.1 °C 34635.4 hPa NNW 6.4 km/h 11.9 km/h 85% 0 mm WeatherDisplay:10.37 W/m2 FEW
08:13 -28 °C -29.1 °C 34635.4 hPa NW 7.2 km/h 20.9 km/h 85% 0 mm WeatherDisplay:10.37 W/m2 FEW
08:18 -28 °C -29.1 °C 34635.4 hPa NNW 8 km/h 11.9 km/h 85% 0 mm WeatherDisplay:10.37 W/m2 FEW
08:23 -28 °C -29.1 °C 34635.4 hPa NNW 3.9 km/h 9 km/h 85% 0 mm WeatherDisplay:10.37 W/m2 FEW
08:28 -28.1 °C -29.1 °C 34635.4 hPa NNW 6.4 km/h 11.9 km/h 85% 0 mm WeatherDisplay:10.37 W/m2 FEW
08:33 -28.1 °C -29.1 °C 34635.4 hPa NNW 5.5 km/h 9 km/h 85% 0 mm WeatherDisplay:10.37 W/m2 FEW
08:38 -28 °C -29.1 °C 34645.6 hPa NNW 6.3 km/h 11.9 km/h 85% 0 mm WeatherDisplay:10.37 W/m2 FEW
08:43 -28 °C -29.1 °C 34645.6 hPa NNW 11.6 km/h 23.8 km/h 85% 0 mm WeatherDisplay:10.37 W/m2 FEW
08:48 -28 °C -29.1 °C 34645.6 hPa NNW 12.7 km/h 20.9 km/h 85% 0 mm WeatherDisplay:10.37 W/m2 FEW
08:53 -27.9 °C -29 °C 34659.1 hPa NNW 4.2 km/h 10.3 km/h 85% 0 mm WeatherDisplay:10.37 W/m2 FEW
08:58 -27.9 °C -29 °C 34659.1 hPa NNW 1.6 km/h 9 km/h 85% 0 mm WeatherDisplay:10.37 W/m2 FEW
09:03 -27.9 °C -29 °C 34659.1 hPa NNW 6.4 km/h 15 km/h 85% 0 mm WeatherDisplay:10.37 W/m2 FEW
09:08 -27.9 °C -29 °C 34659.1 hPa NNW 10.9 km/h 20.9 km/h 85% 0 mm WeatherDisplay:10.37 W/m2 FEW
09:13 -27.9 °C -29 °C 34659.1 hPa NNW 5.1 km/h 9 km/h 85% 0 mm WeatherDisplay:10.37 W/m2 FEW
09:18 -27.9 °C -29 °C 34659.1 hPa NNW 4.7 km/h 9 km/h 85% 0 mm WeatherDisplay:10.37 W/m2 FEW
09:23 -27.9 °C -29 °C 34659.1 hPa North 5.5 km/h 6 km/h 85% 0 mm WeatherDisplay:10.37 W/m2 FEW
09:28 -27.9 °C -29 °C 34669.3 hPa NNW 5 km/h 11.9 km/h 85% 0 mm WeatherDisplay:10.37 W/m2 FEW
09:33 -27.9 °C -29 °C 34669.3 hPa NW 5.6 km/h 9 km/h 85% 0 mm WeatherDisplay:10.37 W/m2 FEW
09:38 -28 °C -29.1 °C 34669.3 hPa NNW 8.5 km/h 15 km/h 85% 0 mm WeatherDisplay:10.37 W/m2 FEW
09:43 -28 °C -29.1 °C 34669.3 hPa NNW 4.2 km/h 9 km/h 85% 0 mm WeatherDisplay:10.37 W/m2 FEW
09:48 -28 °C -29.1 °C 34682.8 hPa NW 7.6 km/h 11.9 km/h 85% 0 mm WeatherDisplay:10.37 W/m2 FEW
09:53 -27.9 °C -28.9 °C 34682.8 hPa NW 5.6 km/h 9 km/h 86% 0 mm WeatherDisplay:10.37 W/m2 FEW
09:58 -27.9 °C -29 °C 34682.8 hPa NNW 5.1 km/h 9 km/h 85% 0 mm WeatherDisplay:10.37 W/m2 FEW
10:03 -27.9 °C -28.9 °C 34682.8 hPa NNW 6.9 km/h 15 km/h 86% 0 mm WeatherDisplay:10.37 W/m2 FEW
10:08 -27.9 °C -28.8 °C 34693 hPa NNW 5.1 km/h 15 km/h 86% 0 mm WeatherDisplay:10.37 W/m2 FEW
10:13 -27.8 °C -28.8 °C 34693 hPa NW 4.2 km/h 15 km/h 86% 0 mm WeatherDisplay:10.37 W/m2 FEW
10:18 -27.7 °C -28.7 °C 34693 hPa NNW 14 km/h 23.8 km/h 86% 0 mm WeatherDisplay:10.37 W/m2 FEW
10:23 -27.7 °C -28.7 °C 34703.1 hPa NNW 7.6 km/h 11.9 km/h 86% 0 mm WeatherDisplay:10.37 W/m2 FEW
10:28 -27.7 °C -28.7 °C 34703.1 hPa NNW 11.4 km/h 23.8 km/h 86% 0 mm WeatherDisplay:10.37 W/m2 FEW
10:33 -27.6 °C -28.7 °C 34703.1 hPa NNW 8 km/h 20.8 km/h 85% 0 mm WeatherDisplay:10.37 W/m2 FEW
10:38 -27.6 °C -28.7 °C 34703.1 hPa North 8 km/h 20.9 km/h 85% 0 mm WeatherDisplay:10.37 W/m2 FEW
10:43 -27.6 °C -28.6 °C 34703.1 hPa NNW 8.2 km/h 11.9 km/h 85% 0 mm WeatherDisplay:10.37 W/m2 FEW
10:48 -27.6 °C -28.6 °C 34716.7 hPa NW 1.6 km/h 9 km/h 85% 0 mm WeatherDisplay:10.37 W/m2 FEW
10:53 -27.6 °C -28.6 °C 34716.7 hPa NNW 1.3 km/h 6 km/h 85% 0 mm WeatherDisplay:10.37 W/m2 FEW
10:58 -27.5 °C -28.6 °C 34716.7 hPa NNW 6.4 km/h 23.8 km/h 85% 0 mm WeatherDisplay:10.37 W/m2 FEW
11:03 -27.5 °C -28.6 °C 34716.7 hPa NNE 2.6 km/h 6 km/h 85% 0 mm WeatherDisplay:10.37 W/m2 FEW
11:08 -27.4 °C -28.5 °C 34726.8 hPa NNW 7.7 km/h 15 km/h 85% 0 mm WeatherDisplay:10.37 W/m2 FEW
11:13 -27.4 °C -28.5 °C 34726.8 hPa NW 8.5 km/h 9 km/h 85% 0 mm WeatherDisplay:10.37 W/m2 FEW
11:18 -27.4 °C -28.5 °C 34726.8 hPa NNW 10.6 km/h 15 km/h 85% 0 mm WeatherDisplay:10.37 W/m2 FEW
11:23 -27.4 °C -28.4 °C 34740.4 hPa NW 8 km/h 11.9 km/h 85% 0 mm WeatherDisplay:10.37 W/m2 FEW
11:28 -27.3 °C -28.4 °C 34740.4 hPa NW 11.1 km/h 12.9 km/h 85% 0 mm WeatherDisplay:10.37 W/m2 FEW
11:33 -27.3 °C -28.4 °C 34740.4 hPa NE 5.6 km/h 23.8 km/h 85% 0 mm WeatherDisplay:10.37 W/m2 FEW
11:38 -27.3 °C -28.4 °C 34750.5 hPa North 6 km/h 15 km/h 85% 0 mm WeatherDisplay:10.37 W/m2 FEW
11:43 -27.3 °C -28.4 °C 34750.5 hPa NNW 5 km/h 12.9 km/h 84% 0 mm WeatherDisplay:10.37 W/m2 FEW
11:48 -27.2 °C -28.4 °C 34760.7 hPa NW 16.9 km/h 20.9 km/h 84% 0 mm WeatherDisplay:10.37 W/m2 FEW
11:53 -27.2 °C -28.3 °C 34750.5 hPa NNW 5.1 km/h 10.3 km/h 84% 0 mm WeatherDisplay:10.37 W/m2 FEW
11:58 -27.2 °C -28.3 °C 34750.5 hPa North 7.2 km/h 9 km/h 84% 0 mm WeatherDisplay:10.37 W/m2 FEW
12:03 -27.1 °C -28.2 °C 34760.7 hPa NNW 6.4 km/h 15 km/h 84% 0 mm WeatherDisplay:10.37 W/m2 FEW
12:08 -27.1 °C -28.2 °C 34760.7 hPa NNW 6.4 km/h 11.9 km/h 84% 0 mm WeatherDisplay:10.37 W/m2 FEW
12:13 -27.1 °C -28.2 °C 34760.7 hPa NNW 10.1 km/h 11.9 km/h 84% 0 mm WeatherDisplay:10.37 W/m2 FEW
12:18 -27.1 °C -28.2 °C 34760.7 hPa NW 8.9 km/h 10.3 km/h 84% 0 mm WeatherDisplay:10.37 W/m2 FEW
12:28 -27 °C -28.1 °C 34760.7 hPa NW 1.3 km/h 10.3 km/h 84% 0 mm WeatherDisplay:10.37 W/m2 FEW
12:38 -26.9 °C -28.1 °C 34760.7 hPa Calm   6 km/h 84% 0 mm WeatherDisplay:10.37 W/m2 FEW
12:43 -26.9 °C -28.1 °C 34760.7 hPa NNW 5 km/h 5.1 km/h 84% 0 mm WeatherDisplay:10.37 W/m2 FEW
12:48 -26.9 °C -28 °C 34760.7 hPa NNW 8.5 km/h 15 km/h 84% 0 mm WeatherDisplay:10.37 W/m2 FEW
12:53 -26.9 °C -28 °C 34774.2 hPa NNW 10.9 km/h 15.6 km/h 84% 0 mm WeatherDisplay:10.37 W/m2 FEW
12:58 -26.9 °C -28 °C 34774.2 hPa NNE 2.3 km/h 9 km/h 84% 0 mm WeatherDisplay:10.37 W/m2 FEW
13:03 -26.8 °C -28 °C 34774.2 hPa NNW 8.9 km/h 23.8 km/h 84% 0 mm WeatherDisplay:10.37 W/m2 FEW
13:08 -26.8 °C -28 °C 34774.2 hPa NNW 1.6 km/h 9 km/h 84% 0 mm WeatherDisplay:10.37 W/m2 FEW
13:13 -26.8 °C -28.1 °C 34774.2 hPa NNW 3.1 km/h 15.6 km/h 83% 0 mm WeatherDisplay:10.37 W/m2 FEW
13:18 -26.8 °C -27.9 °C 34774.2 hPa NNW 5 km/h 20.9 km/h 84% 0 mm WeatherDisplay:10.37 W/m2 FEW
13:24 -26.8 °C -28 °C 34774.2 hPa NNW 7.2 km/h 23.8 km/h 83% 0 mm WeatherDisplay:10.37 W/m2 FEW
13:29 -26.7 °C -27.9 °C 34774.2 hPa NNW 11.4 km/h 23.8 km/h 83% 0 mm WeatherDisplay:10.37 W/m2 FEW
13:36 -26.7 °C -27.9 °C 34784.4 hPa NW 14.5 km/h 26.9 km/h 83% 0 mm WeatherDisplay:10.37 W/m2 FEW
13:41 -26.7 °C -27.9 °C 34784.4 hPa NE 8.5 km/h 9 km/h 83% 0 mm WeatherDisplay:10.37 W/m2 FEW
13:46 -26.6 °C -27.9 °C 34784.4 hPa Calm   11.9 km/h 83% 0 mm WeatherDisplay:10.37 W/m2 FEW
13:52 -26.6 °C -27.9 °C 34797.9 hPa NNW 4.3 km/h 25.9 km/h 83% 0 mm WeatherDisplay:10.37 W/m2 FEW
13:57 -26.6 °C -27.9 °C 34797.9 hPa NNW 7.7 km/h 15.6 km/h 83% 0 mm WeatherDisplay:10.37 W/m2 FEW
14:02 -26.6 °C -27.9 °C 34797.9 hPa North 9 km/h 9 km/h 83% 0 mm WeatherDisplay:10.37 W/m2 FEW
14:07 -26.6 °C -27.9 °C 34797.9 hPa ENE 1.3 km/h 5.1 km/h 82% 0 mm WeatherDisplay:10.37 W/m2 FEW
14:12 -26.6 °C -27.9 °C 34808.1 hPa NE 4.2 km/h 17.9 km/h 82% 0 mm WeatherDisplay:10.37 W/m2 FEW
14:17 -26.6 °C -27.9 °C 34797.9 hPa NNW 8 km/h 15 km/h 82% 0 mm WeatherDisplay:10.37 W/m2 FEW
14:22 -26.7 °C -28 °C 34797.9 hPa NE 4.7 km/h 10.3 km/h 82% 0 mm WeatherDisplay:10.37 W/m2 FEW
14:27 -26.7 °C -27.9 °C 34808.1 hPa North 3.1 km/h 9 km/h 83% 0 mm WeatherDisplay:10.37 W/m2 FEW
14:32 -26.7 °C -28 °C 34808.1 hPa NNW 8.2 km/h 9 km/h 82% 0 mm WeatherDisplay:10.37 W/m2 FEW
14:37 -26.7 °C -28 °C 34818.2 hPa NE 7.6 km/h 11.9 km/h 82% 0 mm WeatherDisplay:10.37 W/m2 FEW
14:42 -26.7 °C -27.9 °C 34818.2 hPa NNW 3.9 km/h 9 km/h 83% 0 mm WeatherDisplay:10.37 W/m2 FEW
14:47 -26.7 °C -27.9 °C 34818.2 hPa NNW 11.4 km/h 23.8 km/h 83% 0 mm WeatherDisplay:10.37 W/m2 FEW
14:52 -26.8 °C -28 °C 34831.8 hPa NNW 4.3 km/h 15 km/h 83% 0 mm WeatherDisplay:10.37 W/m2 FEW
14:57 -26.8 °C -28 °C 34831.8 hPa Calm   20.9 km/h 83% 0 mm WeatherDisplay:10.37 W/m2 FEW
15:02 -26.8 °C -28 °C 34831.8 hPa NW 3.4 km/h 9 km/h 83% 0 mm WeatherDisplay:10.37 W/m2 FEW
15:07 -26.8 °C -28 °C 34831.8 hPa NNW 11.4 km/h 23.8 km/h 83% 0 mm WeatherDisplay:10.37 W/m2 FEW
15:12 -26.8 °C -28.1 °C 34831.8 hPa NNW 3.4 km/h 9 km/h 83% 0 mm WeatherDisplay:10.37 W/m2 FEW
15:17 -26.8 °C -28.1 °C 34841.9 hPa NNW 8.2 km/h 23.3 km/h 83% 0 mm WeatherDisplay:10.37 W/m2 FEW
15:22 -26.8 °C -28.1 °C 34841.9 hPa NNW 8 km/h 20.9 km/h 83% 0 mm WeatherDisplay:10.37 W/m2 FEW
15:27 -26.9 °C -28.1 °C 34852.1 hPa NNW 2.3 km/h 11.9 km/h 83% 0 mm WeatherDisplay:10.37 W/m2 FEW
15:32 -26.9 °C -28.1 °C 34852.1 hPa NW 7.6 km/h 15 km/h 83% 0 mm WeatherDisplay:10.37 W/m2 FEW
15:37 -26.9 °C -28.2 °C 34852.1 hPa NW 5.1 km/h 6 km/h 83% 0 mm WeatherDisplay:10.37 W/m2 FEW
15:42 -26.9 °C -28.2 °C 34865.6 hPa NW 5.6 km/h 15 km/h 83% 0 mm WeatherDisplay:10.37 W/m2 FEW
15:47 -26.9 °C -28.1 °C 34865.6 hPa NNW 3.9 km/h 6 km/h 84% 0 mm WeatherDisplay:10.37 W/m2 FEW
15:52 -27 °C -28.2 °C 34865.6 hPa NW 7.7 km/h 15.6 km/h 83% 0 mm WeatherDisplay:10.37 W/m2 FEW
15:57 -27 °C -28.1 °C 34865.6 hPa NNW 5.1 km/h 15.6 km/h 84% 0 mm WeatherDisplay:10.37 W/m2 FEW
16:02 -27 °C -28.2 °C 34865.6 hPa WNW 5.1 km/h 9 km/h 84% 0 mm WeatherDisplay:10.37 W/m2 FEW
16:07 -27 °C -28.2 °C 34875.8 hPa NW 1.6 km/h 9 km/h 84% 0 mm WeatherDisplay:10.37 W/m2 FEW
16:12 -27 °C -28.2 °C 34875.8 hPa NW 4.3 km/h 9 km/h 84% 0 mm WeatherDisplay:10.37 W/m2 FEW
16:17 -27.1 °C -28.2 °C 34875.8 hPa NNW 6.3 km/h 9 km/h 84% 0 mm WeatherDisplay:10.37 W/m2 FEW
16:22 -27.1 °C -28.2 °C 34875.8 hPa NNW 1 km/h 9 km/h 84% 0 mm WeatherDisplay:10.37 W/m2 FEW
16:27 -27.1 °C -28.2 °C 34889.3 hPa NNW 1.3 km/h 20.9 km/h 84% 0 mm WeatherDisplay:10.37 W/m2 FEW
16:32 -27.1 °C -28.2 °C 34889.3 hPa NW 3.9 km/h 7.7 km/h 84% 0 mm WeatherDisplay:10.37 W/m2 FEW
16:37 -27.1 °C -28.2 °C 34889.3 hPa NNW 3.9 km/h 7.7 km/h 84% 0 mm WeatherDisplay:10.37 W/m2 FEW
16:42 -27.1 °C -28.2 °C 34889.3 hPa NNW 1.3 km/h 9 km/h 84% 0 mm WeatherDisplay:10.37 W/m2 FEW
16:47 -27.1 °C -28.3 °C 34889.3 hPa NNW 2.9 km/h 9 km/h 84% 0 mm WeatherDisplay:10.37 W/m2 FEW
16:52 -27.1 °C -28.3 °C 34899.5 hPa NNW 1.8 km/h 11.9 km/h 84% 0 mm WeatherDisplay:10.37 W/m2 FEW
16:57 -27.2 °C -28.3 °C 34899.5 hPa NNW 6 km/h 11.9 km/h 84% 0 mm WeatherDisplay:10.37 W/m2 FEW
17:02 -27.2 °C -28.3 °C 34899.5 hPa NNW 6 km/h 9 km/h 84% 0 mm WeatherDisplay:10.37 W/m2 FEW
17:07 -27.2 °C -28.3 °C 34899.5 hPa NW 4.2 km/h 15 km/h 84% 0 mm WeatherDisplay:10.37 W/m2 FEW
17:12 -27.2 °C -28.4 °C 34899.5 hPa NNW 4.2 km/h 9 km/h 84% 0 mm WeatherDisplay:10.37 W/m2 FEW
17:17 -27.2 °C -28.4 °C 34909.7 hPa Calm   9 km/h 84% 0 mm WeatherDisplay:10.37 W/m2 FEW
17:22 -27.3 °C -28.4 °C 34909.7 hPa Calm     85% 0 mm WeatherDisplay:10.37 W/m2 FEW
17:27 -27.3 °C -28.4 °C 34909.7 hPa NNW 4.2 km/h 11.9 km/h 85% 0 mm WeatherDisplay:10.37 W/m2 FEW
17:32 -27.3 °C -28.4 °C 34909.7 hPa NNW 0.3 km/h 9 km/h 85% 0 mm WeatherDisplay:10.37 W/m2 FEW
17:37 -27.4 °C -28.4 °C 34909.7 hPa NNW 4.3 km/h 6 km/h 85% 0 mm WeatherDisplay:10.37 W/m2 FEW
17:43 -27.4 °C -28.5 °C 34923.2 hPa NW 2.9 km/h 9 km/h 85% 0 mm WeatherDisplay:10.37 W/m2 FEW
17:48 -27.4 °C -28.5 °C 34923.2 hPa NW 4.7 km/h 9 km/h 85% 0 mm WeatherDisplay:10.37 W/m2 FEW
17:53 -27.4 °C -28.5 °C 34923.2 hPa NNW 6.8 km/h 9 km/h 85% 0 mm WeatherDisplay:10.37 W/m2 FEW
17:58 -27.4 °C -28.5 °C 34923.2 hPa NNW 3.7 km/h 9 km/h 85% 0 mm WeatherDisplay:10.37 W/m2 FEW
18:03 -27.4 °C -28.5 °C 34923.2 hPa NW 4.7 km/h 9 km/h 85% 0 mm WeatherDisplay:10.37 W/m2 FEW
18:08 -27.5 °C -28.6 °C 34933.4 hPa NNW 2.3 km/h 9 km/h 85% 0 mm WeatherDisplay:10.37 W/m2 FEW
18:13 -27.5 °C -28.6 °C 34933.4 hPa NNW 4.7 km/h 10.3 km/h 85% 0 mm WeatherDisplay:10.37 W/m2 FEW
18:18 -27.6 °C -28.6 °C 34933.4 hPa NNW 5.1 km/h 9 km/h 85% 0 mm WeatherDisplay:10.37 W/m2 FEW
18:23 -27.6 °C -28.6 °C 34933.4 hPa NNW 7.2 km/h 11.9 km/h 85% 0 mm WeatherDisplay:10.37 W/m2 FEW
18:28 -27.6 °C -28.6 °C 34946.9 hPa NNW 4.2 km/h 9 km/h 85% 0 mm WeatherDisplay:10.37 W/m2 FEW
18:33 -27.6 °C -28.6 °C 34946.9 hPa NNW 5.5 km/h 9 km/h 85% 0 mm WeatherDisplay:10.37 W/m2 FEW
18:38 -27.6 °C -28.7 °C 34946.9 hPa NNW 3.7 km/h 9 km/h 85% 0 mm WeatherDisplay:10.37 W/m2 FEW
18:43 -27.6 °C -28.7 °C 34946.9 hPa NNW 7.7 km/h 15.6 km/h 85% 0 mm WeatherDisplay:10.37 W/m2 FEW
18:48 -27.6 °C -28.7 °C 34946.9 hPa NNW 7.7 km/h 11.9 km/h 85% 0 mm WeatherDisplay:10.37 W/m2 FEW
18:53 -27.6 °C -28.7 °C 34946.9 hPa NNW 7.2 km/h 11.9 km/h 85% 0 mm WeatherDisplay:10.37 W/m2 FEW
18:58 -27.7 °C -28.7 °C 34946.9 hPa NNW 6.9 km/h 15 km/h 85% 0 mm WeatherDisplay:10.37 W/m2 FEW
19:03 -27.7 °C -28.7 °C 34946.9 hPa NNW 7.6 km/h 11.9 km/h 85% 0 mm WeatherDisplay:10.37 W/m2 FEW
19:08 -27.7 °C -28.8 °C 34946.9 hPa NNW 4.2 km/h 9 km/h 85% 0 mm WeatherDisplay:10.37 W/m2 FEW
19:13 -27.7 °C -28.8 °C 34957.1 hPa NNW 2.3 km/h 9 km/h 85% 0 mm WeatherDisplay:10.37 W/m2 FEW
19:18 -27.7 °C -28.8 °C 34957.1 hPa NNW 4.3 km/h 9 km/h 85% 0 mm WeatherDisplay:10.37 W/m2 FEW
19:23 -27.7 °C -28.8 °C 34957.1 hPa NNW 5.5 km/h 15 km/h 85% 0 mm WeatherDisplay:10.37 W/m2 FEW
19:28 -27.8 °C -28.8 °C 34957.1 hPa NNW 5.6 km/h 9 km/h 85% 0 mm WeatherDisplay:10.37 W/m2 FEW
19:33 -27.8 °C -28.8 °C 34957.1 hPa NNW 3.9 km/h 9 km/h 85% 0 mm WeatherDisplay:10.37 W/m2 FEW
19:38 -27.8 °C -28.8 °C 34967.2 hPa NNW 3.9 km/h 9 km/h 85% 0 mm WeatherDisplay:10.37 W/m2 FEW
19:43 -27.9 °C -28.9 °C 34967.2 hPa NNW 5.1 km/h 9 km/h 85% 0 mm WeatherDisplay:10.37 W/m2 FEW
19:48 -27.9 °C -28.9 °C 34967.2 hPa NNW 1 km/h 9 km/h 85% 0 mm WeatherDisplay:10.37 W/m2 FEW
19:53 -27.9 °C -29 °C 34980.8 hPa NNW 0.5 km/h 2.6 km/h 85% 0 mm WeatherDisplay:10.37 W/m2 FEW
19:58 -27.9 °C -29 °C 34980.8 hPa NNW 0.3 km/h 5.1 km/h 85% 0 mm WeatherDisplay:10.37 W/m2 FEW
20:03 -28 °C -29.1 °C 34980.8 hPa NNW 3.7 km/h 9 km/h 85% 0 mm WeatherDisplay:10.37 W/m2 FEW
20:08 -28.1 °C -29.1 °C 34980.8 hPa Calm     85% 0 mm WeatherDisplay:10.37 W/m2 FEW
20:13 -28.1 °C -29.1 °C 34980.8 hPa Calm     85% 0 mm WeatherDisplay:10.37 W/m2 FEW
20:18 -28.2 °C -29.2 °C 34980.8 hPa Calm     85% 0 mm WeatherDisplay:10.37 W/m2 FEW
20:23 -28.2 °C -29.3 °C 34990.9 hPa Calm     85% 0 mm WeatherDisplay:10.37 W/m2 FEW
20:28 -28.2 °C -29.3 °C 34990.9 hPa Calm     85% 0 mm WeatherDisplay:10.37 W/m2 FEW
20:33 -28.3 °C -29.3 °C 34990.9 hPa Calm     85% 0 mm WeatherDisplay:10.37 W/m2 FEW
20:38 -28.3 °C -29.3 °C 34990.9 hPa Calm     85% 0 mm WeatherDisplay:10.37 W/m2 FEW
20:43 -28.3 °C -29.4 °C 35001.1 hPa Calm     85% 0 mm WeatherDisplay:10.37 W/m2 FEW
20:48 -28.4 °C -29.4 °C 35001.1 hPa NNW 1.3 km/h 9 km/h 85% 0 mm WeatherDisplay:10.37 W/m2 FEW
20:53 -28.4 °C -29.4 °C 35001.1 hPa Calm     86% 0 mm WeatherDisplay:10.37 W/m2 FEW
20:58 -28.4 °C -29.3 °C 35001.1 hPa NNW 2.6 km/h 9 km/h 86% 0 mm WeatherDisplay:10.37 W/m2 FEW
21:03 -28.4 °C -29.4 °C 35001.1 hPa NNW 1.3 km/h   86% 0 mm WeatherDisplay:10.37 W/m2 FEW
21:08 -28.4 °C -29.4 °C 35001.1 hPa Calm     86% 0 mm WeatherDisplay:10.37 W/m2 FEW
21:13 -28.4 °C -29.4 °C 35001.1 hPa Calm     86% 0 mm WeatherDisplay:10.37 W/m2 FEW
21:18 -28.4 °C -29.4 °C 35014.6 hPa NNW 0.5 km/h   86% 0 mm WeatherDisplay:10.37 W/m2 FEW
21:23 -28.5 °C -29.5 °C 35014.6 hPa Calm   3.1 km/h 86% 0 mm WeatherDisplay:10.37 W/m2 FEW
21:28 -28.5 °C -29.5 °C 35014.6 hPa NNW 0.3 km/h 5.1 km/h 86% 0 mm WeatherDisplay:10.37 W/m2 FEW
21:33 -28.5 °C -29.5 °C 35001.1 hPa NNW 3.4 km/h 9 km/h 86% 0 mm WeatherDisplay:10.37 W/m2 FEW
21:38 -28.5 °C -29.5 °C 35014.6 hPa Calm     86% 0 mm WeatherDisplay:10.37 W/m2 FEW
21:43 -28.5 °C -29.5 °C 35014.6 hPa Calm     86% 0 mm WeatherDisplay:10.37 W/m2 FEW
21:53 -28.6 °C -29.5 °C 35014.6 hPa NNW 2.3 km/h 6 km/h 86% 0 mm WeatherDisplay:10.37 W/m2 FEW
21:58 -28.6 °C -29.6 °C 35024.8 hPa Calm     86% 0 mm WeatherDisplay:10.37 W/m2 FEW
22:03 -28.6 °C -29.6 °C 35024.8 hPa NNW 0.8 km/h 3.1 km/h 86% 0 mm WeatherDisplay:10.37 W/m2 FEW
22:08 -28.6 °C -29.6 °C 35024.8 hPa Calm     86% 0 mm WeatherDisplay:10.37 W/m2 FEW
22:13 -28.6 °C -29.6 °C 35024.8 hPa Calm     86% 0 mm WeatherDisplay:10.37 W/m2 FEW
22:18 -28.6 °C -29.6 °C 35024.8 hPa Calm     86% 0 mm WeatherDisplay:10.37 W/m2 FEW
22:23 -28.6 °C -29.6 °C 35038.3 hPa Calm     86% 0 mm WeatherDisplay:10.37 W/m2 FEW
22:28 -28.7 °C -29.6 °C 35038.3 hPa NNW 0.8 km/h   86% 0 mm WeatherDisplay:10.37 W/m2 FEW
22:33 -28.7 °C -29.6 °C 35038.3 hPa Calm     86% 0 mm WeatherDisplay:10.37 W/m2 FEW
22:38 -28.7 °C -29.7 °C 35038.3 hPa Calm     86% 0 mm WeatherDisplay:10.37 W/m2 FEW
22:43 -28.7 °C -29.7 °C 35038.3 hPa NNW 0.5 km/h   86% 0 mm WeatherDisplay:10.37 W/m2 FEW
22:53 -28.7 °C -29.7 °C 35038.3 hPa NNW 1.6 km/h 2.6 km/h 86% 0 mm WeatherDisplay:10.37 W/m2 FEW
22:58 -28.8 °C -29.7 °C 35038.3 hPa Calm     86% 0 mm WeatherDisplay:10.37 W/m2 FEW
23:03 -28.8 °C -29.8 °C 35038.3 hPa Calm     85% 0 mm WeatherDisplay:10.37 W/m2 FEW
23:08 -28.8 °C -29.8 °C 35038.3 hPa Calm     85% 0 mm WeatherDisplay:10.37 W/m2 FEW
23:13 -28.8 °C -29.9 °C 35038.3 hPa Calm     85% 0 mm WeatherDisplay:10.37 W/m2 FEW
23:18 -28.9 °C -29.9 °C 35038.3 hPa Calm     85% 0 mm WeatherDisplay:10.37 W/m2 FEW
23:23 -28.9 °C -29.9 °C 35048.5 hPa Calm     85% 0 mm WeatherDisplay:10.37 W/m2 FEW
23:28 -29 °C -30.1 °C 35038.3 hPa Calm     85% 0 mm WeatherDisplay:10.37 W/m2 FEW
23:33 -29 °C -30.1 °C 35038.3 hPa Calm     85% 0 mm WeatherDisplay:10.37 W/m2 FEW
23:38 -29.1 °C -30.1 °C 35048.5 hPa Calm     85% 0 mm WeatherDisplay:10.37 W/m2 FEW
23:43 -29.1 °C -30.1 °C 35038.3 hPa Calm     85% 0 mm WeatherDisplay:10.37 W/m2 FEW
23:48 -29.1 °C -30.2 °C 35048.5 hPa Calm     85% 0 mm WeatherDisplay:10.37 W/m2 FEW
23:53 -29.2 °C -30.2 °C 35048.5 hPa Calm     85% 0 mm WeatherDisplay:10.37 W/m2 FEW
23:58 -29.2 °C -30.2 °C 35048.5 hPa Calm     85% 0 mm WeatherDisplay:10.37 W/m2 FEW
Tuulensuunkaari, Veikkola, Suomi
Compliments of Weather Underground - 2.5 mb